Location: ????????
(54.6123°N, 39.2099°E)
Time: 07:30:15
(UTC+00:00)

Cosmos 2154 Rocket - Pass Details

Date: 19 May 2025
Orbit: 965 x 996 km, 82.9° (Epoch: 15 June)

Event Time Altitude Azimuth Distance (km) Brightness Sun altitude
Rises 18:03:21 0° 347° (NNW) 3,669 8.1 -4.5°
Reaches altitude 10° 18:05:53 10° 345° (NNW) 2,718 7.5 -4.8°
Maximum altitude 18:12:01 66° 265° (W) 1,051 4.4 -5.4°
Drops below altitude 10° 18:18:08 10° 184° (S) 2,705 5.9 -6.0°
Sets 18:20:39 0° 182° (S) 3,651 6.6 -6.2°
